TimeEST,TemperatureF,Dew PointF,Humidity,Sea Level PressureIn,VisibilityMPH,Wind Direction,Wind SpeedMPH,Gust SpeedMPH,PrecipitationIn,Events,Conditions,WindDirDegrees,DateUTC
12:53 AM,26.1,21.9,84,30.45,10.0,Calm,Calm,-,N/A,,Clear,0,2012-11-17 05:53:00
1:53 AM,26.1,21.9,84,30.48,10.0,Calm,Calm,-,N/A,,Clear,0,2012-11-17 06:53:00
2:53 AM,25.0,21.9,88,30.49,10.0,Calm,Calm,-,N/A,,Clear,0,2012-11-17 07:53:00
3:53 AM,25.0,21.9,88,30.50,10.0,Calm,Calm,-,N/A,,Clear,0,2012-11-17 08:53:00
4:53 AM,25.0,21.0,85,30.53,10.0,Calm,Calm,-,N/A,,Clear,0,2012-11-17 09:53:00
5:53 AM,24.1,21.0,88,30.55,10.0,Calm,Calm,-,N/A,,Clear,0,2012-11-17 10:53:00
6:53 AM,24.1,19.9,84,30.58,10.0,Calm,Calm,-,N/A,,Clear,0,2012-11-17 11:53:00
7:53 AM,28.9,27.0,92,30.60,10.0,Calm,Calm,-,N/A,,Clear,0,2012-11-17 12:53:00
8:53 AM,37.9,28.0,68,30.62,10.0,Calm,Calm,-,N/A,,Clear,0,2012-11-17 13:53:00
9:53 AM,39.9,25.0,55,30.63,10.0,NNE,4.6,-,N/A,,Clear,30,2012-11-17 14:53:00
10:53 AM,42.1,25.0,51,30.62,10.0,Variable,4.6,-,N/A,,Clear,0,2012-11-17 15:53:00
11:53 AM,44.1,25.0,47,30.61,10.0,Variable,4.6,-,N/A,,Clear,0,2012-11-17 16:53:00
12:53 PM,45.0,25.0,46,30.60,10.0,Calm,Calm,-,N/A,,Clear,0,2012-11-17 17:53:00
1:53 PM,45.0,24.1,44,30.60,10.0,Calm,Calm,-,N/A,,Clear,0,2012-11-17 18:53:00
2:53 PM,45.0,23.0,42,30.61,10.0,Calm,Calm,-,N/A,,Clear,0,2012-11-17 19:53:00
3:53 PM,39.0,24.1,55,30.62,10.0,Calm,Calm,-,N/A,,Clear,0,2012-11-17 20:53:00
4:53 PM,32.0,24.1,73,30.63,10.0,Calm,Calm,-,N/A,,Clear,0,2012-11-17 21:53:00
5:53 PM,30.0,23.0,75,30.65,10.0,Calm,Calm,-,N/A,,Clear,0,2012-11-17 22:53:00
6:53 PM,28.0,21.9,78,30.66,10.0,Calm,Calm,-,N/A,,Clear,0,2012-11-17 23:53:00
7:53 PM,27.0,21.9,81,30.68,10.0,Calm,Calm,-,N/A,,Clear,0,2012-11-18 00:53:00
8:53 PM,26.1,21.0,81,30.69,10.0,Calm,Calm,-,N/A,,Clear,0,2012-11-18 01:53:00
9:53 PM,25.0,21.0,85,30.69,10.0,Calm,Calm,-,N/A,,Clear,0,2012-11-18 02:53:00
10:53 PM,25.0,19.9,81,30.69,10.0,Calm,Calm,-,N/A,,Clear,0,2012-11-18 03:53:00
11:53 PM,24.1,19.9,84,30.71,10.0,Calm,Calm,-,N/A,,Clear,0,2012-11-18 04:53:00